Theta_e
301 301 300 300 299 300 300 299 300 300 301 303 304 305 306 307 308 309 308 310 308 306 306 309 309 304 304 304 303 305 305 306 307 301 300 300 299 301 300 304 302 300 298 296 295 294 291 307 304 300 313 310 310 310
302 302 301 301 300 300 301 300 300 300 300 301 302 304 304 305 306 308 306 310 311 307 305 309 311 312 311 308 307 305 303 303 307 305 302 301 300 300 301 296 302 298 304 302 302 302 309 309 312 314 310 311 311 311
303 303 302 301 301 302 301 301 301 301 301 300 301 302 303 304 305 305 305 308 308 305 304 304 303 309 312 313 316 303 304 306 310 311 308 306 300 302 299 299 302 304 305 304 302 308 306 309 312 311 312 311 313 313
303 302 302 303 303 302 302 302 301 301 301 301 301 301 302 302 303 303 302 304 305 302 296 298 309 307 311 312 312 312 309 309 310 308 304 303 302 306 303 302 302 305 305 305 304 307 307 309 311 314 315 312 311 312
302 302 302 302 302 302 302 302 301 301 301 301 301 301 301 301 302 301 302 304 307 303 296 297 303 305 307 307 307 309 309 308 306 303 302 300 305 304 304 303 302 305 306 303 303 312 312 312 314 314 313 313 314 311
302 302 302 302 302 302 302 302 302 301 301 301 302 303 301 301 300 304 298 305 305 306 300 293 302 302 306 307 306 305 305 305 304 303 303 305 306 306 299 298 306 310 309 310 308 310 311 313 311 312 312 314 314 311
302 302 303 303 303 303 302 302 302 301 301 301 302 303 301 301 301 298 296 303 303 302 300 293 294 302 304 305 305 304 306 306 305 304 302 303 304 304 301 296 305 307 309 310 310 309 307 309 308 314 314 315 311 312
301 301 301 302 302 302 303 303 302 301 301 301 302 303 302 299 297 295 298 301 302 301 302 292 293 296 303 303 303 306 303 304 303 302 304 302 303 303 298 304 306 307 307 307 308 312 310 311 311 311 313 311 309 309
301 300 301 301 302 302 302 302 303 301 301 301 302 300 297 296 293 299 304 307 306 303 293 294 291 290 301 300 302 303 306 301 305 301 300 304 299 297 302 305 306 307 308 308 310 310 310 308 309 310 310 309 309 309
300 300 300 301 301 301 301 302 303 301 301 300 297 294 291 298 302 305 302 299 299 299 296 293 297 292 297 297 298 298 303 302 298 302 305 301 299 307 308 309 309 309 310 310 307 307 307 307 308 309 309 310 310 311
299 300 301 301 301 301 301 303 302 301 298 295 293 293 299 301 302 297 291 290 292 289 294 294 293 291 297 289 291 297 297 300 293 299 299 298 298 301 304 306 308 309 310 309 310 310 311 311 309 310 310 310 311 311
299 300 301 300 301 301 302 302 302 298 296 295 295 297 298 298 294 289 287 290 289 286 291 291 293 295 297 299 295 297 294 297 290 302 297 293 299 300 301 302 305 307 308 308 310 310 309 309 310 310 311 311 311 310
299 300 301 301 301 301 302 302 301 300 298 297 294 292 292 291 284 283 281 285 287 291 293 294 294 295 296 297 296 294 292 292 301 293 290 298 300 300 300 301 303 306 307 309 309 311 311 310 310 311 310 311 308 307
299 300 300 300 301 301 302 302 302 299 294 289 287 283 284 282 285 287 288 289 292 294 294 295 294 295 296 292 295 292 295 297 288 286 289 299 299 299 301 302 302 303 306 308 310 311 312 310 309 310 311 307 307 307
299 300 300 300 300 301 301 302 300 296 292 286 286 280 283 288 289 290 292 291 294 295 294 293 293 294 293 292 295 294 290 287 289 290 297 299 300 300 300 302 303 304 306 308 310 310 311 310 309 308 307 307 308 307
299 299 298 300 300 301 301 301 299 297 292 288 286 283 287 286 286 288 290 291 294 294 295 295 292 290 289 291 289 289 288 286 292 296 298 300 300 301 302 303 304 305 307 308 311 309 310 308 307 306 305 307 307 307
298 295 298 300 300 301 300 297 295 289 288 284 284 287 286 286 286 289 290 290 294 293 290 290 286 287 293 289 287 293 292 296 297 298 299 300 300 301 302 304 304 306 306 306 309 308 308 308 305 304 303 305 306 307
295 297 300 300 300 297 295 295 290 287 283 285 284 286 287 288 287 288 290 292 293 291 290 286 291 286 285 285 289 296 300 302 299 298 298 300 301 302 302 303 305 306 307 309 308 307 306 305 304 303 302 304 303 304
296 297 299 301 299 294 289 290 291 283 284 287 287 288 288 288 290 291 291 293 294 295 291 290 285 284 287 292 294 297 299 299 296 298 299 301 302 302 302 304 306 307 309 308 307 306 306 306 304 302 303 304 301 302
298 300 301 300 298 290 287 287 291 285 282 285 287 286 287 288 290 290 290 291 290 289 287 285 285 289 293 296 299 299 300 302 299 296 296 298 300 301 302 303 305 306 310 307 307 300 304 303 303 303 304 302 302 300
299 299 297 297 293 292 289 287 285 287 287 285 289 287 287 289 288 288 288 291 287 286 285 289 289 291 295 295 296 297 299 299 297 298 297 296 298 301 301 303 306 307 307 306 305 302 301 302 302 304 303 303 303 303
296 298 294 295 289 288 286 289 287 288 286 286 287 289 287 286 286 288 291 287 286 288 290 291 292 292 293 294 294 296 297 298 300 299 294 296 297 298 300 301 305 305 307 304 304 304 303 304 304 304 303 301 300 300
297 296 292 290 286 284 284 290 284 285 283 285 287 285 285 286 288 291 286 288 288 292 292 292 293 294 294 295 296 296 297 297 296 296 298 298 300 302 304 305 307 306 305 304 307 305 303 297 300 303 302 302 300 298
297 290 285 285 284 281 286 284 286 284 286 284 283 282 284 286 290 287 284 287 290 292 292 293 293 292 293 293 293 293 296 298 297 298 299 299 300 301 304 308 308 308 308 306 305 305 303 302 298 302 302 301 300 299
284 285 285 281 285 282 281 282 283 283 281 283 282 283 285 289 284 284 285 288 292 293 293 294 293 293 292 293 294 295 298 298 296 296 299 301 301 304 306 308 309 308 309 305 303 304 302 301 302 302 301 301 299 298
278 283 282 282 283 281 282 280 282 282 283 283 284 287 288 286 283 282 287 291 294 296 296 295 294 293 293 294 294 296 297 300 300 298 299 302 304 305 304 305 305 305 307 308 308 304 302 302 302 301 300 297 291 299
278 281 285 288 286 286 285 286 287 285 282 282 285 285 286 282 282 288 294 296 294 296 297 297 296 294 295 295 297 299 301 302 301 301 304 307 309 309 309 306 305 308 307 309 308 307 305 303 302 300 301 301 300 300
284 285 282 285 285 286 283 284 284 283 285 288 287 283 284 285 285 288 291 293 294 296 297 297 300 299 298 298 299 300 300 302 304 305 306 309 311 312 312 312 311 295 306 307 308 307 304 303 302 303 302 300 300 301
283 286 286 283 285 285 286 285 286 290 291 286 284 286 286 287 289 290 292 294 294 294 297 300 303 302 301 303 304 304 307 306 303 300 300 302 303 306 309 310 310 308 309 306 289 298 305 305 304 303 303 301 301 302
285 288 285 284 283 283 288 291 290 294 295 292 293 293 292 291 293 296 295 291 292 295 299 302 302 303 301 301 303 305 308 309 309 305 301 301 303 305 305 305 304 304 304 303 301 298 290 299 296 302 300 300 301 301
291 289 286 285 285 289 291 293 295 294 294 294 294 289 287 289 292 295 292 293 296 299 301 302 303 304 302 302 303 302 303 306 305 304 303 304 305 305 306 305 304 303 303 303 303 304 303 302 302 300 300 300 300 299
288 286 286 286 289 293 293 293 293 292 291 291 291 292 291 288 285 288 292 293 295 294 294 300 302 303 306 306 305 303 295 306 306 306 305 304 304 304 305 305 305 304 304 303 303 303 302 301 300 300 300 301 301 302
287 287 287 287 289 290 292 291 291 290 289 288 288 289 289 287 284 287 293 295 295 295 295 299 303 304 304 304 303 301 297 300 293 287 288 288 289 296 305 306 305 304 303 303 302 302 301 301 301 301 301 301 301 301
Wind_Speed
11 11 8 7 6 6 4 2 2 4 6 8 10 11 11 13 15 5 1 4 3 1 1 2 1 3 2 0 2 4 3 2 1 3 3 4 4 6 4 4 7 9 8 5 3 5 9 9 7 8 4 2 3 6
13 11 10 9 8 7 4 4 3 3 4 6 7 9 11 12 14 9 1 1 2 2 3 3 5 5 2 2 1 2 3 2 2 2 1 1 3 3 3 6 1 6 6 5 9 6 1 9 4 6 1 4 3 5
11 12 11 12 10 7 7 6 4 3 3 4 6 7 9 10 12 9 2 3 1 1 2 3 4 3 2 8 5 3 2 1 3 3 1 1 4 2 4 6 5 5 4 4 4 7 12 9 8 9 8 11 7 8
10 8 8 11 11 8 3 4 2 2 2 3 4 5 8 8 9 7 2 3 1 0 2 2 2 3 4 1 5 7 2 3 2 2 2 2 3 3 1 3 4 2 8 6 5 9 6 9 10 10 9 10 9 7
8 8 7 8 7 6 5 4 3 3 3 4 5 3 5 8 10 2 1 0 1 2 1 5 10 2 5 6 9 7 5 3 3 3 4 4 2 2 2 2 6 4 4 5 7 8 6 6 6 6 9 10 13 11
9 8 8 7 7 7 6 5 5 4 4 4 5 7 4 6 8 1 2 2 3 2 2 3 4 4 4 3 5 8 8 6 5 4 4 4 2 3 4 8 9 8 8 9 6 5 6 11 9 6 8 12 10 12
12 9 8 10 9 8 7 6 5 4 3 4 5 7 2 3 2 0 1 2 3 2 0 4 4 3 4 2 2 2 5 3 4 4 5 6 4 5 5 17 11 10 10 9 9 6 13 12 10 10 10 11 7 10
8 8 7 6 6 6 7 7 5 4 3 3 4 5 4 2 1 1 1 3 4 2 2 2 4 3 4 2 1 1 3 3 4 4 1 4 3 5 11 11 8 13 17 16 13 14 17 17 15 16 11 6 10 12
9 8 8 6 5 5 4 3 6 3 2 3 4 2 1 1 1 2 3 5 0 1 3 3 3 1 4 3 2 1 1 4 1 4 5 5 7 10 6 8 10 14 14 16 13 13 13 12 17 15 11 10 13 13
9 9 9 8 6 5 4 4 6 4 1 1 1 1 2 1 4 5 3 2 1 1 0 3 2 2 4 4 2 3 1 3 3 3 1 5 11 12 13 15 13 13 15 17 20 19 18 16 15 15 15 13 15 14
10 8 12 8 6 5 4 7 7 6 3 1 1 1 1 6 2 1 2 2 3 3 4 3 4 6 2 3 2 2 2 2 3 2 3 2 2 4 11 12 11 12 13 15 15 17 19 18 17 13 12 14 14 13
10 9 10 8 6 6 4 9 8 3 1 1 1 0 1 2 1 3 3 2 4 3 4 3 3 4 2 1 3 3 3 2 5 1 2 3 4 7 11 12 12 12 13 16 16 16 17 17 16 14 12 12 14 12
7 7 7 8 5 5 7 9 8 4 2 1 0 1 1 1 3 5 6 4 3 4 4 4 3 3 2 3 3 3 4 5 1 3 3 2 5 10 14 13 16 16 15 16 19 16 16 15 15 14 13 9 12 14
11 9 7 7 5 5 7 9 8 4 1 1 2 3 3 3 4 4 1 2 2 1 2 2 2 4 3 4 4 5 4 2 3 4 3 3 10 12 13 14 14 18 19 18 19 19 16 13 13 12 10 11 14 15
8 7 6 5 5 4 5 11 9 2 1 2 1 3 5 2 1 1 1 1 1 0 0 1 2 2 3 4 4 3 4 5 5 3 1 5 10 10 13 15 15 15 16 16 17 17 15 13 9 6 9 12 13 15
10 7 3 6 8 5 9 10 2 1 1 1 2 2 3 2 4 3 3 3 1 1 1 1 2 3 5 4 5 7 4 5 4 2 4 7 8 11 12 14 15 16 17 17 15 14 14 9 5 6 9 11 14 16
9 2 6 11 9 10 12 3 2 2 2 3 3 3 3 2 3 2 1 1 1 1 0 1 4 4 2 5 5 4 3 4 3 3 4 7 10 13 14 15 17 18 17 16 18 15 12 4 9 11 11 10 13 12
1 2 7 12 8 7 2 2 2 2 4 5 4 3 3 4 4 4 3 3 3 2 2 3 2 4 5 5 4 2 2 1 2 4 6 8 10 12 13 16 17 18 19 17 15 13 6 11 10 8 10 7 11 12
4 4 6 18 7 4 2 1 1 3 5 3 4 5 4 4 6 7 5 4 2 1 1 3 7 6 8 4 8 6 4 3 6 8 8 8 9 12 15 16 18 19 18 17 13 3 4 5 7 9 8 7 7 7
4 5 19 15 7 2 3 2 1 2 3 3 4 4 4 5 5 5 7 6 5 4 7 7 9 9 7 7 6 7 7 5 6 10 12 8 9 12 14 14 11 15 13 10 2 3 5 5 5 10 5 8 10 8
5 9 9 4 2 1 1 3 3 3 3 4 3 3 4 3 5 6 6 7 7 7 9 12 13 12 12 12 13 11 11 9 10 9 12 12 11 10 12 11 10 11 7 5 4 4 5 3 7 8 9 6 8 8
3 9 2 2 1 2 0 2 3 2 3 4 4 4 5 6 7 7 5 7 8 11 11 11 12 12 13 17 15 16 16 16 13 10 10 8 10 10 10 9 9 10 6 2 1 5 5 6 6 7 9 8 8 8
5 3 2 2 2 2 0 3 4 4 5 3 2 4 5 4 5 3 6 8 9 11 12 15 19 19 17 18 17 16 17 16 13 13 10 8 9 9 9 8 7 8 4 2 2 4 5 6 7 9 9 10 9 9
5 2 3 3 3 2 2 4 3 4 4 4 4 5 5 5 3 5 8 10 11 9 11 16 12 12 12 17 13 13 14 12 12 11 8 8 9 10 9 7 5 3 1 3 1 5 6 7 8 9 10 11 10 8
3 3 2 3 3 4 5 4 5 4 6 5 5 6 5 4 5 7 14 13 10 9 10 10 11 13 13 12 12 14 15 11 11 11 9 9 9 8 8 7 4 3 2 3 2 4 5 6 7 9 11 10 11 10
2 5 6 6 4 5 4 4 5 6 5 4 6 4 3 4 6 9 4 2 4 2 2 4 8 10 12 13 12 9 10 9 9 10 10 9 9 8 7 7 5 4 5 5 6 8 8 8 9 12 10 10 9 11
4 4 5 4 3 3 4 5 6 6 5 5 4 3 4 6 7 3 3 4 7 7 6 7 6 9 11 9 9 9 8 8 10 10 8 6 7 7 7 6 7 3 6 6 5 7 9 11 11 11 11 10 10 9
4 3 6 3 4 4 5 5 5 5 5 3 3 4 5 4 3 2 3 6 9 10 7 7 6 5 7 7 6 6 7 8 9 8 6 5 4 5 5 4 4 11 5 5 7 8 10 11 12 13 13 12 9 8
5 3 3 5 5 5 6 6 5 3 2 2 4 4 4 4 2 3 5 8 10 10 6 4 2 2 2 3 3 4 5 7 10 10 12 8 4 5 3 5 6 6 5 4 2 7 11 10 12 12 13 11 10 8
4 5 3 3 4 5 4 5 6 6 5 6 5 3 5 2 4 5 7 9 10 7 5 5 2 2 3 4 5 5 2 2 5 6 6 7 6 4 4 5 7 7 7 8 9 10 12 13 13 12 11 10 9 8
2 4 3 4 5 5 7 6 6 5 4 3 2 3 5 4 4 2 6 11 9 5 1 4 3 3 3 3 4 4 5 4 7 7 5 4 6 7 6 6 7 7 8 10 11 10 12 11 11 13 13 12 11 9
4 6 3 4 4 3 4 3 2 2 2 2 2 2 4 3 5 5 8 12 12 11 11 6 2 2 5 5 5 5 5 6 7 6 7 6 6 8 8 7 8 8 9 10 11 12 14 14 11 12 12 13 12 10
3 3 4 5 4 3 2 3 2 2 2 3 4 4 5 5 6 5 7 12 9 9 9 6 4 5 7 9 9 8 8 8 7 7 6 8 7 7 8 8 8 10 12 12 11 12 13 15 12 12 11 10 9 8
Wind_Direction
212 209 205 225 238 239 252 255 336 5 14 16 17 20 16 7 11 10 48 10 353 321 262 231 236 175 147 13 304 20 231 120 238 224 235 188 213 198 184 163 179 186 171 190 171 224 260 154 130 196 215 197 236 210
219 219 201 207 229 235 235 241 269 325 8 18 17 13 18 9 4 354 96 32 8 272 345 320 291 290 258 155 66 26 10 303 31 278 167 302 211 180 217 225 172 205 208 188 196 215 81 205 233 220 170 271 227 230
217 213 212 202 218 217 224 243 256 285 319 5 13 11 13 10 8 12 24 358 306 334 266 276 260 5 290 240 220 235 212 324 94 0 355 342 260 186 215 227 216 218 161 213 161 230 241 233 241 244 232 235 235 237
204 218 218 212 215 222 215 185 192 277 305 339 350 3 17 12 2 24 15 350 301 41 295 282 336 299 355 121 190 224 156 129 103 314 312 274 264 200 258 332 272 350 163 187 239 268 265 253 236 248 247 239 241 231
209 215 200 182 177 177 185 183 220 261 284 292 315 342 8 8 350 352 196 277 321 318 288 290 309 310 300 232 230 217 211 200 227 218 212 232 244 204 178 257 242 195 202 207 247 237 222 229 210 227 230 232 236 221
205 206 199 195 193 193 196 207 225 247 271 299 326 355 5 14 358 256 129 60 26 342 292 305 350 280 314 285 221 190 202 195 208 207 214 224 159 243 254 260 247 224 216 233 269 22 263 301 309 277 257 253 238 216
198 205 209 208 204 199 195 204 222 240 267 302 325 334 355 10 22 328 25 66 347 312 244 301 324 273 304 284 136 152 179 181 212 216 222 245 224 205 245 250 249 246 268 267 241 264 276 267 271 285 251 266 227 217
189 191 193 195 202 205 211 202 212 230 264 309 322 327 335 24 96 235 298 275 167 90 347 299 279 282 7 324 152 96 162 192 212 238 191 224 184 215 249 268 271 247 247 255 263 260 260 275 286 271 262 206 211 201
193 192 193 186 175 177 167 188 202 205 261 304 321 360 143 74 110 86 17 129 79 346 136 245 259 261 346 30 299 198 238 216 137 236 224 209 215 224 258 288 257 245 250 265 271 261 269 254 267 269 254 227 222 203
199 197 194 188 186 189 203 263 179 174 206 18 9 239 103 92 279 246 162 151 144 90 245 244 312 262 324 357 14 324 235 269 240 193 151 232 248 262 285 280 283 302 306 305 288 278 270 260 257 257 235 220 219 210
205 204 189 184 189 201 230 168 160 135 92 99 121 79 335 309 196 86 168 191 161 200 189 210 231 244 191 251 263 280 305 261 265 123 250 236 232 16 338 339 341 330 319 312 306 282 266 260 262 250 233 227 220 222
201 197 177 177 195 199 190 155 147 111 160 88 21 54 278 211 202 197 204 161 207 216 171 197 189 206 196 209 235 218 254 214 252 26 249 270 109 344 339 338 326 317 313 313 321 308 291 268 250 245 235 215 216 199
168 153 159 154 157 169 159 156 149 118 107 119 174 140 201 117 197 206 190 197 195 172 161 186 184 197 166 219 233 246 229 237 339 224 236 264 356 347 344 334 328 327 328 322 320 325 310 280 251 229 228 204 171 165
182 171 146 138 151 151 165 152 150 101 55 81 140 169 214 184 234 201 233 68 70 164 149 203 236 213 163 185 227 230 218 243 235 221 230 97 351 336 337 340 327 325 327 318 317 325 317 299 258 229 210 161 158 160
173 163 157 170 187 154 164 150 123 68 80 95 157 211 215 244 281 79 48 291 165 341 21 229 246 242 199 241 214 240 209 226 205 218 350 345 340 328 322 323 328 325 322 317 315 322 325 316 273 213 166 158 159 143
166 140 179 179 181 174 145 119 88 90 64 204 227 245 235 286 245 263 261 255 113 130 127 200 253 237 228 231 207 216 216 205 162 88 349 329 325 322 320 324 325 328 321 312 310 324 323 307 242 158 150 155 151 141
156 190 189 180 170 152 118 78 75 99 213 225 238 229 250 297 273 284 234 284 338 335 315 64 235 231 335 228 225 216 233 101 49 346 322 322 327 325 324 323 326 325 322 318 315 309 298 206 140 138 143 159 137 129
166 166 157 160 129 90 24 45 106 164 233 230 245 235 206 222 221 240 234 205 200 185 175 253 287 239 232 233 202 213 121 117 315 339 329 323 327 324 323 321 324 320 316 309 300 293 204 160 162 124 112 125 110 113
184 180 190 145 119 103 125 121 176 230 240 241 244 248 247 254 236 252 239 224 227 20 278 229 239 230 228 253 288 291 288 274 316 321 310 311 318 321 322 320 321 322 320 318 313 263 157 143 137 118 124 129 114 121
146 177 146 136 100 97 127 133 196 239 251 253 243 232 228 238 260 243 244 212 193 195 209 222 233 236 234 240 243 263 282 279 316 312 302 307 322 321 319 317 314 312 320 317 290 136 105 93 114 105 134 147 136 144
96 117 87 46 73 100 181 158 216 236 263 251 279 228 253 235 240 240 246 174 193 216 230 227 238 243 239 243 251 254 256 262 268 267 280 297 306 312 307 311 312 312 303 287 237 133 105 125 129 128 142 135 120 128
87 86 96 107 92 102 270 215 279 341 251 263 271 220 244 236 233 224 207 198 233 229 229 240 238 236 240 240 243 240 246 259 259 260 254 270 283 297 298 304 301 308 302 262 285 148 138 136 120 146 123 115 123 118
91 107 88 97 130 187 296 159 226 220 248 231 230 241 233 233 231 174 228 225 241 226 226 231 236 237 239 243 244 241 241 244 252 257 262 258 267 274 280 284 283 289 278 165 174 152 119 129 130 129 126 136 125 117
122 106 126 162 193 239 202 220 216 243 241 240 233 249 243 227 207 230 245 246 248 236 223 229 227 233 234 240 241 238 231 226 242 252 251 251 259 264 268 273 273 285 186 108 103 139 136 133 137 141 143 139 138 137
136 165 192 199 193 228 224 226 210 223 249 222 237 253 243 208 232 252 264 275 271 262 242 233 227 228 231 233 229 230 232 226 228 243 243 240 253 259 258 256 227 190 180 145 163 126 145 144 151 153 152 152 143 143
223 198 201 202 203 216 215 246 225 227 234 243 239 251 258 242 237 253 255 297 315 326 337 291 253 240 234 230 233 226 223 206 216 235 248 240 238 242 254 252 218 186 193 190 176 179 175 164 162 160 154 145 131 139
250 228 205 231 255 240 258 255 259 263 260 254 243 242 238 238 237 255 354 353 321 314 303 284 261 240 238 233 228 229 220 205 204 225 239 233 232 233 231 228 213 168 168 206 211 194 177 169 165 162 155 148 150 151
247 264 227 178 212 228 260 269 259 238 230 251 259 251 270 264 267 301 279 287 292 297 272 268 268 246 229 225 226 220 210 212 217 238 253 246 234 225 203 187 155 141 166 212 210 192 177 170 162 162 158 147 146 149
229 229 215 258 242 237 228 229 241 244 169 219 262 252 266 254 265 260 289 304 311 299 276 255 232 168 196 214 219 197 194 173 181 197 221 232 192 213 189 183 171 158 178 201 116 161 175 162 154 152 145 138 137 146
239 189 228 255 246 242 236 214 252 251 230 239 251 279 281 259 257 253 301 306 300 285 242 224 252 178 168 181 157 128 100 205 214 217 220 221 199 137 151 149 131 130 137 126 116 111 104 114 112 120 125 133 138 135
249 196 226 231 251 249 252 273 277 268 252 255 193 243 286 288 301 298 331 330 331 336 352 160 177 163 152 183 154 123 116 55 85 73 64 85 108 113 126 123 123 129 136 137 138 137 134 133 135 136 138 138 144 157
194 213 243 252 254 260 275 245 272 281 292 299 283 325 314 307 318 324 339 346 355 2 359 5 23 116 124 105 83 79 76 94 62 46 44 70 91 110 119 119 121 126 127 124 126 133 137 131 130 132 141 149 155 157
218 221 242 276 266 267 288 279 266 321 320 338 337 8 357 346 348 320 318 341 356 357 347 341 33 58 81 91 96 90 74 67 49 36 62 68 73 92 100 101 106 112 115 116 119 124 121 122 125 134 140 144 147 150